Time,TemperatureF,DewpointF,PressureIn,WindDirection,WindDirectionDegrees,WindSpeedMPH,WindSpeedGustMPH,Humidity,HourlyPrecipIn,Conditions,Clouds,dailyrainin,SolarRadiationWatts/m^2,SoftwareType,DateUTC
2013-04-22 00:02:00,34.0,28.0,-100.00,SSE,165,5.0,14.0,80,0.00,,,0.00,0.000000,,2013-04-22 05:02:00,
2013-04-22 00:12:00,36.0,28.0,-100.00,SSE,166,6.0,13.0,73,0.00,,,0.00,0.000000,,2013-04-22 05:12:00,
2013-04-22 00:42:00,36.0,28.0,-100.00,SSE,166,6.0,13.0,73,0.00,,,0.00,0.000000,,2013-04-22 05:42:00,
2013-04-22 00:52:00,36.0,28.0,-100.00,SSE,166,6.0,13.0,73,0.00,,,0.00,0.000000,,2013-04-22 05:52:00,
2013-04-22 01:02:00,36.0,28.0,-100.00,SSE,166,6.0,13.0,73,0.00,,,0.00,0.000000,,2013-04-22 06:02:00,
2013-04-22 01:12:00,37.0,27.0,-100.00,South,183,6.0,13.0,67,0.00,,,0.00,0.000000,,2013-04-22 06:12:00,
2013-04-22 01:32:00,37.0,27.0,-100.00,South,183,6.0,13.0,67,0.00,,,0.00,0.000000,,2013-04-22 06:32:00,
2013-04-22 01:42:00,37.0,27.0,-100.00,South,183,6.0,13.0,67,0.00,,,0.00,0.000000,,2013-04-22 06:42:00,
2013-04-22 01:52:00,37.0,27.0,-100.00,South,183,6.0,13.0,67,0.00,,,0.00,0.000000,,2013-04-22 06:52:00,
2013-04-22 02:01:00,37.0,27.0,-100.00,South,183,6.0,13.0,67,0.00,,,0.00,0.000000,,2013-04-22 07:01:00,
2013-04-22 02:32:00,36.0,30.0,-100.00,South,184,4.0,10.0,78,0.00,,,0.00,0.000000,,2013-04-22 07:32:00,
2013-04-22 02:42:00,36.0,30.0,-100.00,South,184,4.0,10.0,78,0.00,,,0.00,0.000000,,2013-04-22 07:42:00,
2013-04-22 02:52:00,36.0,30.0,-100.00,South,184,4.0,10.0,78,0.00,,,0.00,0.000000,,2013-04-22 07:52:00,
2013-04-22 03:02:00,36.0,30.0,-100.00,South,184,4.0,10.0,78,0.00,,,0.00,0.000000,,2013-04-22 08:02:00,
2013-04-22 03:11:00,36.0,30.0,-100.00,South,184,4.0,10.0,78,0.00,,,0.00,0.000000,,2013-04-22 08:11:00,
2013-04-22 03:32:00,35.0,33.0,-100.00,South,178,7.0,12.0,91,0.08,,,0.08,0.000000,,2013-04-22 08:32:00,
2013-04-22 03:42:00,35.0,33.0,-100.00,South,178,7.0,12.0,91,0.08,,,0.08,0.000000,,2013-04-22 08:42:00,
2013-04-22 03:53:00,35.0,33.0,-100.00,South,178,7.0,12.0,91,0.08,,,0.08,0.000000,,2013-04-22 08:53:00,
2013-04-22 04:01:00,35.0,33.0,-100.00,South,178,7.0,12.0,91,0.08,,,0.08,0.000000,,2013-04-22 09:01:00,
2013-04-22 04:11:00,35.0,33.0,-100.00,South,178,7.0,12.0,91,0.08,,,0.08,0.000000,,2013-04-22 09:11:00,
2013-04-22 04:12:00,36.0,34.0,-100.00,SSW,196,6.0,10.0,92,0.02,,,0.10,0.000000,,2013-04-22 09:12:00,
2013-04-22 04:33:00,36.0,34.0,-100.00,SSW,196,6.0,10.0,92,0.02,,,0.10,0.000000,,2013-04-22 09:33:00,
2013-04-22 04:42:00,36.0,34.0,-100.00,SSW,196,6.0,10.0,92,0.02,,,0.10,0.000000,,2013-04-22 09:42:00,
2013-04-22 04:52:00,36.0,34.0,-100.00,SSW,196,6.0,10.0,92,0.02,,,0.10,0.000000,,2013-04-22 09:52:00,
2013-04-22 05:03:00,36.0,34.0,-100.00,SSW,196,6.0,10.0,92,0.02,,,0.10,0.000000,,2013-04-22 10:03:00,
2013-04-22 05:12:00,37.0,35.0,-100.00,SSW,207,7.0,13.0,91,0.00,,,0.10,0.000000,,2013-04-22 10:12:00,
2013-04-22 05:32:00,37.0,35.0,-100.00,SSW,207,7.0,13.0,91,0.00,,,0.10,0.000000,,2013-04-22 10:32:00,
2013-04-22 05:42:00,37.0,35.0,-100.00,SSW,207,7.0,13.0,91,0.00,,,0.10,0.000000,,2013-04-22 10:42:00,
2013-04-22 05:52:00,37.0,35.0,-100.00,SSW,207,7.0,13.0,91,0.00,,,0.10,0.000000,,2013-04-22 10:52:00,
2013-04-22 06:02:00,37.0,35.0,-100.00,SSW,207,7.0,13.0,91,0.00,,,0.10,0.000000,,2013-04-22 11:02:00,
2013-04-22 06:12:00,37.0,35.0,-100.00,SSW,201,6.0,15.0,92,0.00,,,0.10,0.000000,,2013-04-22 11:12:00,
2013-04-22 06:42:00,37.0,35.0,-100.00,SSW,201,6.0,15.0,92,0.00,,,0.10,0.000000,,2013-04-22 11:42:00,
2013-04-22 06:52:00,37.0,35.0,-100.00,SSW,201,6.0,15.0,92,0.00,,,0.10,0.000000,,2013-04-22 11:52:00,
2013-04-22 07:02:00,37.0,35.0,-100.00,SSW,201,6.0,15.0,92,0.00,,,0.10,0.000000,,2013-04-22 12:02:00,
2013-04-22 08:42:00,38.0,36.0,-100.00,SW,220,4.0,13.0,92,-99.99,,,0.10,31.000000,,2013-04-22 13:42:00,
2013-04-22 08:53:00,38.0,36.0,-100.00,SW,220,4.0,13.0,92,-99.99,,,0.10,31.000000,,2013-04-22 13:53:00,
2013-04-22 09:02:00,38.0,36.0,-100.00,SW,220,4.0,13.0,92,-99.99,,,0.10,31.000000,,2013-04-22 14:02:00,
2013-04-22 09:11:00,38.0,36.0,-100.00,SW,220,4.0,13.0,92,-99.99,,,0.10,31.000000,,2013-04-22 14:11:00,
2013-04-22 09:12:00,39.0,37.0,-100.00,South,174,3.0,7.0,93,0.00,,,0.10,41.000000,,2013-04-22 14:12:00,
2013-04-22 09:33:00,39.0,37.0,-100.00,South,174,3.0,7.0,93,0.00,,,0.10,41.000000,,2013-04-22 14:33:00,
2013-04-22 09:42:00,39.0,37.0,-100.00,South,174,3.0,7.0,93,0.00,,,0.10,41.000000,,2013-04-22 14:42:00,
2013-04-22 09:52:00,39.0,37.0,-100.00,South,174,3.0,7.0,93,0.00,,,0.10,41.000000,,2013-04-22 14:52:00,
2013-04-22 10:02:00,39.0,37.0,-100.00,South,174,3.0,7.0,93,0.00,,,0.10,41.000000,,2013-04-22 15:02:00,
2013-04-22 10:12:00,40.0,37.0,-100.00,South,186,4.0,7.0,90,0.00,,,0.10,68.000000,,2013-04-22 15:12:00,
2013-04-22 10:33:00,40.0,37.0,-100.00,South,186,4.0,7.0,90,0.00,,,0.10,68.000000,,2013-04-22 15:33:00,
2013-04-22 10:43:00,40.0,37.0,-100.00,South,186,4.0,7.0,90,0.00,,,0.10,68.000000,,2013-04-22 15:43:00,
2013-04-22 10:53:00,40.0,37.0,-100.00,South,186,4.0,7.0,90,0.00,,,0.10,68.000000,,2013-04-22 15:53:00,
2013-04-22 11:03:00,40.0,37.0,-100.00,South,186,4.0,7.0,90,0.00,,,0.10,68.000000,,2013-04-22 16:03:00,
2013-04-22 11:12:00,40.0,37.0,-100.00,South,181,4.0,6.0,90,0.00,,,0.10,81.000000,,2013-04-22 16:12:00,
2013-04-22 11:33:00,40.0,37.0,-100.00,South,181,4.0,6.0,90,0.00,,,0.10,81.000000,,2013-04-22 16:33:00,
2013-04-22 11:42:00,40.0,37.0,-100.00,South,181,4.0,6.0,90,0.00,,,0.10,81.000000,,2013-04-22 16:42:00,
2013-04-22 11:52:00,40.0,37.0,-100.00,South,181,4.0,6.0,90,0.00,,,0.10,81.000000,,2013-04-22 16:52:00,
2013-04-22 12:02:00,40.0,37.0,-100.00,South,181,4.0,6.0,90,0.00,,,0.10,81.000000,,2013-04-22 17:02:00,
2013-04-22 12:12:00,41.0,39.0,-100.00,South,190,4.0,8.0,91,0.00,,,0.10,96.000000,,2013-04-22 17:12:00,
2013-04-22 12:32:00,41.0,39.0,-100.00,South,190,4.0,8.0,91,0.00,,,0.10,96.000000,,2013-04-22 17:32:00,
2013-04-22 12:43:00,41.0,39.0,-100.00,South,190,4.0,8.0,91,0.00,,,0.10,96.000000,,2013-04-22 17:43:00,
2013-04-22 12:52:00,41.0,39.0,-100.00,South,190,4.0,8.0,91,0.00,,,0.10,96.000000,,2013-04-22 17:52:00,
2013-04-22 13:01:00,41.0,39.0,-100.00,South,190,4.0,8.0,91,0.00,,,0.10,96.000000,,2013-04-22 18:01:00,
2013-04-22 13:12:00,42.0,39.0,-100.00,SSW,195,4.0,9.0,88,0.00,,,0.10,165.000000,,2013-04-22 18:12:00,
2013-04-22 13:42:00,42.0,39.0,-100.00,SSW,195,4.0,9.0,88,0.00,,,0.10,165.000000,,2013-04-22 18:42:00,
2013-04-22 13:52:00,42.0,39.0,-100.00,SSW,195,4.0,9.0,88,0.00,,,0.10,165.000000,,2013-04-22 18:52:00,
2013-04-22 14:01:00,42.0,39.0,-100.00,SSW,195,4.0,9.0,88,0.00,,,0.10,165.000000,,2013-04-22 19:01:00,
2013-04-22 14:42:00,41.0,39.0,-100.00,SE,135,3.0,6.0,94,0.02,,,0.12,100.000000,,2013-04-22 19:42:00,
2013-04-22 14:53:00,41.0,39.0,-100.00,SE,135,3.0,6.0,94,0.02,,,0.12,100.000000,,2013-04-22 19:53:00,
2013-04-22 15:02:00,41.0,39.0,-100.00,SE,135,3.0,6.0,94,0.02,,,0.12,100.000000,,2013-04-22 20:02:00,
2013-04-22 15:11:00,41.0,39.0,-100.00,SE,135,3.0,6.0,94,0.02,,,0.12,100.000000,,2013-04-22 20:11:00,
2013-04-22 15:42:00,40.0,39.0,-100.00,SSW,208,0.0,5.0,96,0.13,,,0.25,47.000000,,2013-04-22 20:42:00,
2013-04-22 15:52:00,40.0,39.0,-100.00,SSW,208,0.0,5.0,96,0.13,,,0.25,47.000000,,2013-04-22 20:52:00,
2013-04-22 16:02:00,40.0,39.0,-100.00,SSW,208,0.0,5.0,96,0.13,,,0.25,47.000000,,2013-04-22 21:02:00,
2013-04-22 16:11:00,40.0,39.0,-100.00,SSW,208,0.0,5.0,96,0.13,,,0.25,47.000000,,2013-04-22 21:11:00,
2013-04-22 16:12:00,40.0,39.0,-100.00,East,99,3.0,5.0,96,0.11,,,0.36,79.000000,,2013-04-22 21:12:00,
2013-04-22 16:33:00,40.0,39.0,-100.00,East,99,3.0,5.0,96,0.11,,,0.36,79.000000,,2013-04-22 21:33:00,
2013-04-22 16:43:00,40.0,39.0,-100.00,East,99,3.0,5.0,96,0.11,,,0.36,79.000000,,2013-04-22 21:43:00,
2013-04-22 16:53:00,40.0,39.0,-100.00,East,99,3.0,5.0,96,0.11,,,0.36,79.000000,,2013-04-22 21:53:00,
2013-04-22 17:03:00,40.0,39.0,-100.00,East,99,3.0,5.0,96,0.11,,,0.36,79.000000,,2013-04-22 22:03:00,
2013-04-22 17:42:00,40.0,39.0,-100.00,East,84,3.0,6.0,97,0.04,,,0.40,45.000000,,2013-04-22 22:42:00,
2013-04-22 17:52:00,40.0,39.0,-100.00,East,84,3.0,6.0,97,0.04,,,0.40,45.000000,,2013-04-22 22:52:00,
2013-04-22 18:02:00,40.0,39.0,-100.00,East,84,3.0,6.0,97,0.04,,,0.40,45.000000,,2013-04-22 23:02:00,
2013-04-22 18:11:00,40.0,39.0,-100.00,East,84,3.0,6.0,97,0.04,,,0.40,45.000000,,2013-04-22 23:11:00,
2013-04-22 18:12:00,39.0,38.0,-100.00,ENE,64,5.0,8.0,97,0.02,,,0.42,30.000000,,2013-04-22 23:12:00,
2013-04-22 18:33:00,39.0,38.0,-100.00,ENE,64,5.0,8.0,97,0.02,,,0.42,30.000000,,2013-04-22 23:33:00,
2013-04-22 18:42:00,39.0,38.0,-100.00,ENE,64,5.0,8.0,97,0.02,,,0.42,30.000000,,2013-04-22 23:42:00,
2013-04-22 18:52:00,39.0,38.0,-100.00,ENE,64,5.0,8.0,97,0.02,,,0.42,30.000000,,2013-04-22 23:52:00,
2013-04-22 19:02:00,39.0,38.0,-100.00,ENE,64,5.0,8.0,97,0.02,,,0.42,30.000000,,2013-04-23 00:02:00,
2013-04-22 20:12:00,36.0,35.0,-100.00,ENE,60,6.0,11.0,97,-99.99,,,0.44,2.000000,,2013-04-23 01:12:00,
2013-04-22 20:42:00,36.0,35.0,-100.00,ENE,60,6.0,11.0,97,-99.99,,,0.44,2.000000,,2013-04-23 01:42:00,
2013-04-22 20:52:00,36.0,35.0,-100.00,ENE,60,6.0,11.0,97,-99.99,,,0.44,2.000000,,2013-04-23 01:52:00,
2013-04-22 21:02:00,36.0,35.0,-100.00,ENE,60,6.0,11.0,97,-99.99,,,0.44,2.000000,,2013-04-23 02:02:00,
2013-04-22 21:33:00,36.0,35.0,-100.00,ENE,61,7.0,11.0,97,0.00,,,0.44,0.000000,,2013-04-23 02:33:00,
2013-04-22 21:42:00,36.0,35.0,-100.00,ENE,61,7.0,11.0,97,0.00,,,0.44,0.000000,,2013-04-23 02:42:00,
2013-04-22 21:52:00,36.0,35.0,-100.00,ENE,61,7.0,11.0,97,0.00,,,0.44,0.000000,,2013-04-23 02:52:00,
2013-04-22 22:01:00,36.0,35.0,-100.00,ENE,61,7.0,11.0,97,0.00,,,0.44,0.000000,,2013-04-23 03:01:00,
2013-04-22 22:11:00,36.0,35.0,-100.00,ENE,61,7.0,11.0,97,0.00,,,0.44,0.000000,,2013-04-23 03:11:00,
2013-04-22 22:12:00,35.0,34.0,-100.00,East,83,4.0,14.0,97,0.00,,,0.44,0.000000,,2013-04-23 03:12:00,
2013-04-22 22:33:00,35.0,34.0,-100.00,East,83,4.0,14.0,97,0.00,,,0.44,0.000000,,2013-04-23 03:33:00,
2013-04-22 22:43:00,35.0,34.0,-100.00,East,83,4.0,14.0,97,0.00,,,0.44,0.000000,,2013-04-23 03:43:00,
2013-04-22 22:53:00,35.0,34.0,-100.00,East,83,4.0,14.0,97,0.00,,,0.44,0.000000,,2013-04-23 03:53:00,
2013-04-22 23:03:00,35.0,34.0,-100.00,East,83,4.0,14.0,97,0.00,,,0.44,0.000000,,2013-04-23 04:03:00,
2013-04-22 23:12:00,35.0,34.0,-100.00,ENE,76,6.0,15.0,97,0.00,,,0.44,0.000000,,2013-04-23 04:12:00,
2013-04-22 23:33:00,35.0,34.0,-100.00,ENE,76,6.0,15.0,97,0.00,,,0.44,0.000000,,2013-04-23 04:33:00,
2013-04-22 23:44:00,35.0,34.0,-100.00,ENE,76,6.0,15.0,97,0.00,,,0.44,0.000000,,2013-04-23 04:44:00,
2013-04-22 23:53:00,35.0,34.0,-100.00,ENE,76,6.0,15.0,97,0.00,,,0.44,0.000000,,2013-04-23 04:53:00,